COSMOS 2411 (GLONASS)

Satellite information

Favourite Embed

Satellite Type and Status

PAYLOADIN ORBIT

Key statistics

Satellite COSMOS 2411 (GLONASS) at a glance.

Uptime

7611

Days in orbit

Revolutions

≈ 2.1

Per day

Orbit

MEO

Medium Earth Orbit

Inclination

64.1

Latest

Satellite identification and parameters

Extended collection of information and parameters for COSMOS 2411 (GLONASS).

Object identification

Identified? True

Debris? False

Object name: COSMOS 2411 (GLONASS)

International designator: 2004-053B

Object number (NORAD): 28509

Object ID (CCSDS): 28509

Country: COMMONWEALTH OF INDEPENDENT STATES (CIS)

Current information (Y/N): Y

RCS size: LARGE

Orbital parameters

Period: 675.749 minutes

Inclination: 64.0554 deg

SMA: 25508.442 km

Apoapsis: 19141.334 km

Periapsis: 19119.28 km

RAAN: 68.4748 deg

Eccentricy: 0.00043228

Argument of periapsis: 185.3087 deg

Mean anomaly: 355.2884 deg

Mean motion: 2.13096768 rev/day

Mean motion (dot): -0.00000003 rev/day2

B* drag term: 0.0 1/REarth

Two-line elements (TLE)

Creation date: Oct. 26, 2025, 2:54 a.m.

Reference frame: TEME

Reference center: EARTH

Epoch: Oct. 25, 2025, 9:24 a.m. UTC

TLE line 0: 0 COSMOS 2411 (GLONASS)

TLE line 1: 1 28509U 04053B 25298.39211398 -.00000003 00000-0 00000-0 0 9992

TLE line 2: 2 28509 64.0554 68.4748 0004323 185.3087 355.2884 2.13096768162119

Live tracking on map

Real-time ground track for satellite COSMOS 2411 (GLONASS).

In-orbit conjunctions

There are no conjunctions computed for COSMOS 2411 (GLONASS), at the moment. Check back to stay up to date, as we update our databases every day.

Go to all conjunctions

Associated space launch

GLONASS navigation satellites

COSMOS 2411 (GLONASS) was lifted into orbit during the mission ‘Proton | Uragan 85, 86 & Uragan-M 3’, on board a Proton space rocket.

The launch took place on Dec. 26, 2004, 1:53 p.m. from 200/39 (200L).

For more information about the launch, click the button.

Launch to space Proton | Uragan 85, 86 & Uragan-M 3
Proton | Uragan 85, 86 & Uragan-M 3

Agency: N/A

Status: Launch Successful

Launch date: Dec. 26, 2004, 1:53 p.m. UTC

Rocket: Proton

Launch pad: 200/39 (200L)

Location: Baikonur Cosmodrome, Republic of Kazakhstan

...

Latest news about this satellite

There are no fresh news available about this satellite. Check back as we update our databases every day.


Newsletter sign-up

Weekly statistics, charts and insights to help you stay on top of the space industry.